Weather History for KAJG - February, 2014

Change the Weather History Date:

Thursday, February 20, 2014

  Actual Average (KLWV) Record (KLWV)
Temperature  
Mean Temperature 50 °F 37 °F  
Max Temperature 64 °F 46 °F 69 °F (2011)
Min Temperature 35 °F 28 °F -13 °F (2015)
Degree Days  
Heating Degree Days 16 28  
Month to date heating degree days 613  
Since 1 July heating degree days 3464  
Cooling Degree Days 0 0  
Month to date cooling degree days 0  
Year to date cooling degree days 0  
Moisture  
Dew Point 42 °F    
Average Humidity 79    
Maximum Humidity 94    
Minimum Humidity 66    
Precipitation  
Precipitation 0.22 in 0.07 in 0.39 in (2002)
Month to date precipitation 1.51  
Year to date precipitation 3.89  
Sea Level Pressure  
Sea Level Pressure 29.67 in    
Wind  
Wind Speed 14 mph (South)    
Max Wind Speed 36 mph    
Max Gust Speed 54 mph    
Visibility 10 miles    
Events Rain , Thunderstorm    
T = Trace of Precipitation, MM = Missing Value Source: NWS Daily Summary

Daily Weather History Graph

Daily Weather History Graph

Search for Another Location

Airport or City:

Trip Planner

Search our weather history database for the weather conditions in past years. The results will help you decide how hot, cold, wet, or windy it might be!

Date:

Astronomy

Feb. 20, 2014 Rise Set
Actual Time 6:35 AM CST 5:34 PM CST
Civil Twilight 6:08 AM CST 6:01 PM CST
Nautical Twilight 5:37 AM CST 6:32 PM CST
Astronomical Twilight 5:06 AM CST 7:03 PM CST
Moon 11:23 PM CST (2/20) 9:22 AM CST (2/20)
Length of Visible Light 11h 52m
Length of Day
10h 58m
Waning Gibbous, 70% of the Moon is Illuminated
Feb 20
Waning Gibbous
Feb 22
Last Quarter
Mar 1
New
Mar 8
First Quarter
Mar 16
Full

Hourly Weather History & Observations

Time (CST) Temp. Windchill Dew Point Humidity Pressure Visibility Wind Dir Wind Speed Gust Speed Precip Events Conditions
12:15 AM 37.4 °F 30.3 °F 32.0 °F 81% 29.89 in 10.0 mi East 10.4 mph - N/A   Overcast
12:35 AM 37.4 °F 30.8 °F 32.0 °F 81% 29.88 in 10.0 mi East 9.2 mph - N/A Thunderstorm Overcast
12:55 AM 37.4 °F 31.4 °F 32.0 °F 81% 29.87 in 10.0 mi East 8.1 mph - N/A   Overcast
1:15 AM 39.2 °F 33.6 °F 32.0 °F 75% 29.85 in 10.0 mi East 8.1 mph - N/A Rain Light Rain
1:35 AM 39.2 °F 33.6 °F 32.0 °F 75% 29.84 in 10.0 mi East 8.1 mph - N/A   Overcast
1:55 AM 37.4 °F 32.8 °F 32.0 °F 81% 29.83 in 10.0 mi ESE 5.8 mph - N/A   Overcast
2:15 AM 37.4 °F 32.8 °F 32.0 °F 81% 29.82 in 10.0 mi ESE 5.8 mph - N/A   Mostly Cloudy
2:35 AM 37.4 °F 32.1 °F 32.0 °F 81% 29.80 in 10.0 mi East 6.9 mph - N/A   Overcast
2:55 AM 39.2 °F 34.2 °F 33.8 °F 81% 29.79 in 10.0 mi East 6.9 mph - 0.01 in Rain , Thunderstorm Light Thunderstorms and Rain
3:15 AM 41.0 °F 34.7 °F 33.8 °F 76% 29.78 in 10.0 mi SE 10.4 mph - N/A   Overcast
3:35 AM 41.0 °F 35.2 °F 35.6 °F 81% 29.76 in 10.0 mi SE 9.2 mph - N/A   Mostly Cloudy
3:55 AM 41.0 °F - 35.6 °F 81% 29.75 in 10.0 mi Calm Calm - N/A   Mostly Cloudy
4:15 AM 41.0 °F 38.0 °F 35.6 °F 81% 29.74 in 10.0 mi East 4.6 mph - N/A   Overcast
4:35 AM 41.0 °F 37.1 °F 35.6 °F 81% 29.73 in 10.0 mi SE 5.8 mph - N/A   Overcast
4:55 AM 46.4 °F 40.7 °F 39.2 °F 76% 29.72 in 10.0 mi SSE 12.7 mph - N/A   Overcast
5:15 AM 46.4 °F 41.5 °F 41.0 °F 81% 29.72 in 10.0 mi South 10.4 mph - N/A   Overcast
5:35 AM 48.2 °F - 41.0 °F 76% 29.71 in 10.0 mi South 15.0 mph - N/A   Overcast
5:55 AM 48.2 °F - 42.8 °F 82% 29.71 in 10.0 mi South 11.5 mph - N/A   Overcast
6:15 AM 48.2 °F - 42.8 °F 82% 29.70 in 10.0 mi South 12.7 mph - N/A   Overcast
6:35 AM 48.2 °F - 42.8 °F 82% 29.69 in 10.0 mi South 15.0 mph - N/A   Scattered Clouds
6:55 AM 50.0 °F - 44.6 °F 82% 29.68 in 10.0 mi South 13.8 mph - N/A Thunderstorm Mostly Cloudy
7:15 AM 50.0 °F - 44.6 °F 82% 29.68 in 10.0 mi South 15.0 mph - 0.01 in   Scattered Clouds
7:35 AM 51.8 °F - 46.4 °F 82% 29.68 in 10.0 mi South 13.8 mph - 0.01 in   Mostly Cloudy
7:55 AM 51.8 °F - 46.4 °F 82% 29.69 in 10.0 mi South 13.8 mph - 0.01 in   Mostly Cloudy
8:15 AM 51.8 °F - 48.2 °F 88% 29.67 in 10.0 mi South 17.3 mph - N/A   Scattered Clouds
8:35 AM 53.6 °F - 50.0 °F 88% 29.67 in 10.0 mi South 15.0 mph 20.7 mph N/A   Mostly Cloudy
8:55 AM 53.6 °F - 50.0 °F 88% 29.67 in 10.0 mi South 16.1 mph - N/A   Mostly Cloudy
9:15 AM 53.6 °F - 50.0 °F 88% 29.66 in 7.0 mi South 13.8 mph - N/A   Light Drizzle
9:35 AM 53.6 °F - 51.8 °F 94% 29.66 in 10.0 mi SSE 11.5 mph 17.3 mph N/A   Overcast
9:55 AM 55.4 °F - 51.8 °F 88% 29.64 in 10.0 mi South 16.1 mph - N/A   Overcast
10:15 AM 57.2 °F - 53.6 °F 88% 29.63 in 10.0 mi South 18.4 mph 24.2 mph N/A   Overcast
10:35 AM 57.2 °F - 53.6 °F 88% 29.63 in 10.0 mi South 16.1 mph - N/A   Overcast
10:55 AM 57.2 °F - 53.6 °F 88% 29.62 in 10.0 mi South 15.0 mph 20.7 mph N/A   Overcast
1:15 PM 60.8 °F - 55.4 °F 82% 29.54 in 10.0 mi South 20.7 mph 34.5 mph N/A   Overcast
1:55 PM 60.8 °F - 55.4 °F 82% 29.51 in 7.0 mi South 31.1 mph 38.0 mph N/A   Overcast
2:15 PM 62.6 °F - 55.4 °F 77% 29.50 in 10.0 mi South 26.5 mph 33.4 mph N/A   Overcast
2:35 PM 62.6 °F - 57.2 °F 82% 29.49 in 10.0 mi South 25.3 mph 31.1 mph N/A   Mostly Cloudy
5:15 PM 64.4 °F - 55.4 °F 73% 29.40 in 10.0 mi South 26.5 mph 34.5 mph N/A   Scattered Clouds
5:35 PM 62.6 °F - 55.4 °F 77% 29.39 in 10.0 mi South 33.4 mph 41.4 mph N/A   Clear
5:55 PM 64.4 °F - 55.4 °F 73% 29.43 in 10.0 mi SSW 23.0 mph 31.1 mph N/A   Clear
6:15 PM 62.6 °F - 57.2 °F 82% 29.45 in 10.0 mi SSW 28.8 mph 38.0 mph N/A Rain Light Rain
6:35 PM 62.6 °F - 57.2 °F 82% 29.46 in 5.0 mi SW 17.3 mph 27.6 mph 0.03 in Rain , Thunderstorm Light Thunderstorms and Rain
6:55 PM 55.4 °F - 50.0 °F 82% 29.51 in 4.0 mi West 33.4 mph 54.1 mph 0.08 in Rain , Thunderstorm Light Thunderstorms and Rain
7:15 PM 55.4 °F - 44.6 °F 67% 29.55 in 10.0 mi West 32.2 mph 43.7 mph 0.03 in   Overcast
7:35 PM 51.8 °F - 41.0 °F 67% 29.58 in 10.0 mi West 32.2 mph 43.7 mph 0.05 in   Mostly Cloudy
7:55 PM 48.2 °F - 37.4 °F 66% 29.61 in 10.0 mi West 34.5 mph 50.6 mph 0.07 in   Mostly Cloudy
8:15 PM 46.4 °F 36.4 °F 35.6 °F 66% 29.63 in 10.0 mi WNW 35.7 mph 44.9 mph 0.01 in   Scattered Clouds
8:35 PM 42.8 °F 31.9 °F 32.0 °F 66% 29.64 in 10.0 mi West 32.2 mph 48.3 mph 0.02 in   Scattered Clouds
8:55 PM 42.8 °F 33.3 °F 32.0 °F 66% 29.68 in 10.0 mi West 24.2 mph 42.6 mph 0.03 in   Clear
9:15 PM 42.8 °F 33.3 °F 32.0 °F 66% 29.69 in 10.0 mi West 24.2 mph 35.7 mph 0.01 in   Scattered Clouds
9:35 PM 41.0 °F 31.6 °F 32.0 °F 70% 29.71 in 10.0 mi West 20.7 mph 31.1 mph 0.01 in   Mostly Cloudy
9:55 PM 41.0 °F 31.9 °F 32.0 °F 70% 29.71 in 10.0 mi West 19.6 mph 31.1 mph 0.02 in   Mostly Cloudy
10:15 PM 39.2 °F 30.5 °F 32.0 °F 75% 29.71 in 10.0 mi WNW 16.1 mph 27.6 mph N/A   Scattered Clouds
10:35 PM 39.2 °F 30.8 °F 32.0 °F 75% 29.71 in 10.0 mi West 15.0 mph 21.9 mph N/A   Clear
10:55 PM 37.4 °F 30.3 °F 32.0 °F 81% 29.72 in 10.0 mi West 10.4 mph - N/A   Clear
11:15 PM 37.4 °F 31.4 °F 30.2 °F 75% 29.74 in 10.0 mi WSW 8.1 mph - N/A   Clear
11:35 PM 35.6 °F 28.6 °F 30.2 °F 81% 29.74 in 10.0 mi WSW 9.2 mph - N/A   Clear
11:55 PM 35.6 °F 29.2 °F 30.2 °F 81% 29.73 in 10.0 mi WSW 8.1 mph - N/A   Clear